Powrót do katalogu

PHISAT 2

AktywnyNaukaSSO
NORAD 60470·PAYLOAD·🇬🇧 United Kingdom

Wystrzelony Aug 16, 2024 z Vandenberg Space Force Base

Loading…

Następne Przeloty (najbliższe 24 godziny)

TLE

ŚwieżeSource: Space-Track

Epoka: Sep 13, 2026, 23:09 UTC

1 60470U 24149C   26256.96516238  .00005834  00000-0  19063-3 0  9990
2 60470  97.3697 335.7258 0000318  19.4357 340.6897 15.32121848115586

Śledź PHISAT 2 w czasie rzeczywistym z AllMySat

Download on the App Store